Volver al catálogo

STARLINK-34766

ActivoComunicacionesVLEO
NORAD 66505·PAYLOAD·🇺🇸 United States

Lanzado Nov 15, 2025 desde Cape Canaveral Space Force Station

Loading…

Próximos Pases (próximas 24 horas)

TLE

ActualizadoSource: CelesTrak SupGP

Época: Sep 15, 2026, 03:16 UTC

1 66505C 25263W   26258.13659722  .00036762  00000+0  13311-2 0  2580
2 66505  43.0026   0.4139 0001665 267.8469 205.7973 15.27570547    13

Sigue STARLINK-34766 en tiempo real con AllMySat

Download on the App Store